timestamp,wind_dir_avg,wind_spd_avg,wind_spd_max_dir,wind_spd_gust,battery_voltage,lat,long
2023-01-24 00:04:01+00:00,176.0,12.45,175.0,14.56,12.25,47.59359,-54.27349
2023-01-24 00:14:01+00:00,173.0,10.82,175.0,12.59,12.25,47.59359,-54.27349
2023-01-24 00:24:01+00:00,176.0,11.65,179.0,13.73,12.25,47.59359,-54.27349
2023-01-24 00:34:01+00:00,175.0,10.98,185.0,12.32,12.25,47.59359,-54.27349
2023-01-24 00:44:01+00:00,181.0,12.79,184.0,15.35,12.25,47.59359,-54.27349
2023-01-24 00:54:01+00:00,179.0,12.64,186.0,14.98,12.25,47.59359,-54.27349
2023-01-24 01:04:01+00:00,162.0,12.21,158.0,14.45,12.25,47.59359,-54.27349
2023-01-24 01:14:01+00:00,166.0,12.77,168.0,15.14,12.25,47.59359,-54.27349
2023-01-24 01:24:01+00:00,157.0,12.43,154.0,15.24,12.25,47.59359,-54.27349
2023-01-24 01:34:01+00:00,153.0,10.93,149.0,12.81,12.25,47.59359,-54.27349
2023-01-24 01:44:01+00:00,154.0,11.29,159.0,15.06,12.25,47.59359,-54.27349
2023-01-24 01:54:01+00:00,152.0,9.94,160.0,12.2,12.25,47.59359,-54.27349
2023-01-24 02:04:01+00:00,143.0,12.29,140.0,14.33,12.25,47.59359,-54.27349
2023-01-24 02:14:00+00:00,145.0,12.32,148.0,13.97,12.25,47.59359,-54.27349
2023-01-24 02:24:00+00:00,147.0,12.22,156.0,15.14,12.25,47.59359,-54.27349
2023-01-24 02:34:00+00:00,145.0,14.02,132.0,16.26,12.25,47.59359,-54.27349
2023-01-24 02:44:00+00:00,152.0,14.41,153.0,17.35,12.25,47.59359,-54.27349
2023-01-24 02:54:00+00:00,144.0,13.78,146.0,15.22,12.25,47.59359,-54.27349
2023-01-24 03:04:00+00:00,149.0,11.82,148.0,14.62,12.25,47.59359,-54.27349
2023-01-24 03:14:00+00:00,141.0,10.94,140.0,12.87,12.17,47.59359,-54.27349
2023-01-24 03:24:00+00:00,143.0,11.44,148.0,12.62,12.17,47.59359,-54.27349
2023-01-24 03:34:00+00:00,159.0,10.78,160.0,14.06,12.17,47.59359,-54.27349
2023-01-24 03:44:00+00:00,166.0,8.36,156.0,10.14,12.17,47.59359,-54.27349
2023-01-24 03:54:00+00:00,151.0,7.41,146.0,10.96,12.17,47.59359,-54.27349
2023-01-24 04:04:00+00:00,142.0,7.34,145.0,9.02,12.17,47.59359,-54.27349
2023-01-24 04:14:01+00:00,153.0,6.23,139.0,8.65,12.17,47.59359,-54.27349
2023-01-24 04:24:01+00:00,162.0,17.37,159.0,23.29,12.17,47.59359,-54.27349
2023-01-24 04:34:01+00:00,162.0,15.26,165.0,20.88,12.17,47.59359,-54.27349
2023-01-24 04:44:01+00:00,175.0,18.32,174.0,21.86,12.17,47.59359,-54.27349
2023-01-24 04:54:01+00:00,166.0,19.01,169.0,27.89,12.17,47.59359,-54.27349
2023-01-24 05:04:01+00:00,168.0,19.91,163.0,24.36,12.17,47.59359,-54.27349
2023-01-24 05:14:01+00:00,167.0,19.32,165.0,27.41,12.17,47.59359,-54.27349
2023-01-24 05:24:01+00:00,168.0,23.08,180.0,27.76,12.17,47.59359,-54.27349
2023-01-24 05:34:01+00:00,173.0,18.97,180.0,25.9,12.17,47.59359,-54.27349
2023-01-24 05:44:01+00:00,172.0,21.07,181.0,26.16,12.17,47.59359,-54.27349
2023-01-24 05:54:01+00:00,171.0,18.73,167.0,22.52,12.17,47.59359,-54.27349
2023-01-24 06:04:01+00:00,170.0,18.12,168.0,21.95,12.17,47.59359,-54.27349
2023-01-24 06:14:00+00:00,168.0,21.83,166.0,24.74,12.17,47.59359,-54.27349
2023-01-24 06:24:00+00:00,173.0,21.06,176.0,27.7,12.17,47.59359,-54.27349
2023-01-24 06:34:00+00:00,177.0,18.75,188.0,22.12,12.17,47.59359,-54.27349
2023-01-24 06:44:00+00:00,188.0,15.97,195.0,19.37,12.17,47.59359,-54.27349
2023-01-24 06:54:00+00:00,191.0,15.8,196.0,18.43,12.17,47.59359,-54.27349
2023-01-24 07:04:00+00:00,180.0,16.15,193.0,19.28,12.17,47.59359,-54.27349
2023-01-24 07:14:00+00:00,186.0,19.12,193.0,22.06,12.17,47.59359,-54.27349
2023-01-24 07:24:00+00:00,190.0,17.13,193.0,22.54,12.17,47.59359,-54.27349
2023-01-24 07:34:00+00:00,190.0,17.36,188.0,20.88,12.17,47.59359,-54.27349
2023-01-24 07:44:00+00:00,183.0,20.76,191.0,23.79,12.17,47.59359,-54.27349
2023-01-24 07:54:00+00:00,171.0,20.3,170.0,23.25,12.17,47.59359,-54.27349
2023-01-24 08:04:00+00:00,177.0,19.83,169.0,25.87,12.17,47.59359,-54.27349
2023-01-24 08:14:00+00:00,180.0,19.31,170.0,23.12,12.17,47.59359,-54.27349
2023-01-24 08:24:00+00:00,182.0,18.69,178.0,22.08,12.17,47.59359,-54.27349
2023-01-24 08:34:00+00:00,166.0,18.82,167.0,21.99,12.17,47.59359,-54.27349
2023-01-24 08:44:00+00:00,165.0,17.24,164.0,21.88,12.17,47.59359,-54.27349
2023-01-24 08:54:00+00:00,167.0,16.64,169.0,20.04,12.17,47.59359,-54.27349
2023-01-24 09:04:00+00:00,166.0,16.56,166.0,19.09,12.17,47.59359,-54.27349
2023-01-24 09:14:00+00:00,167.0,17.88,171.0,21.32,12.17,47.59359,-54.27349
2023-01-24 09:24:00+00:00,168.0,14.46,165.0,17.12,12.17,47.59359,-54.27349
2023-01-24 09:34:00+00:00,173.0,16.26,167.0,17.87,12.17,47.59359,-54.27349
2023-01-24 09:44:00+00:00,165.0,14.67,167.0,16.62,12.17,47.59359,-54.27349
2023-01-24 09:54:00+00:00,167.0,14.09,165.0,16.15,12.17,47.59359,-54.27349
2023-01-24 10:04:00+00:00,180.0,11.88,192.0,14.62,12.17,47.59359,-54.27349
2023-01-24 10:14:01+00:00,177.0,12.38,180.0,13.82,12.17,47.59359,-54.27349
2023-01-24 10:24:01+00:00,183.0,10.32,172.0,12.65,12.17,47.59359,-54.27349
2023-01-24 10:34:01+00:00,187.0,9.35,207.0,11.39,12.17,47.59359,-54.27349
2023-01-24 10:44:01+00:00,196.0,11.56,205.0,14.26,12.17,47.59359,-54.27349
2023-01-24 10:54:01+00:00,179.0,12.72,180.0,15.71,12.17,47.59359,-54.27349
2023-01-24 11:04:01+00:00,177.0,13.99,179.0,15.64,12.17,47.59359,-54.27349
2023-01-24 11:14:00+00:00,172.0,13.79,161.0,16.63,12.09,47.59359,-54.27349
2023-01-24 11:24:00+00:00,177.0,16.32,188.0,20.26,12.09,47.59359,-54.27349
2023-01-24 11:34:00+00:00,183.0,15.89,179.0,18.07,12.09,47.59359,-54.27349
2023-01-24 11:44:00+00:00,200.0,15.28,199.0,17.3,12.09,47.59359,-54.27349
2023-01-24 11:54:00+00:00,195.0,15.12,199.0,16.69,12.09,47.59359,-54.27349
2023-01-24 12:04:00+00:00,195.0,17.29,195.0,20.93,12.09,47.59359,-54.27349
2023-01-24 12:14:00+00:00,197.0,16.83,196.0,19.91,12.17,47.59359,-54.27349
2023-01-24 12:24:00+00:00,195.0,14.57,194.0,17.16,12.17,47.59359,-54.27349
2023-01-24 12:34:00+00:00,199.0,13.01,208.0,15.56,12.17,47.59359,-54.27349
2023-01-24 12:44:00+00:00,212.0,13.37,218.0,19.33,12.17,47.59359,-54.27349
2023-01-24 12:54:00+00:00,216.0,13.73,218.0,16.53,12.17,47.59359,-54.27349
2023-01-24 13:04:00+00:00,219.0,12.29,227.0,16.57,12.17,47.59359,-54.27349
2023-01-24 13:14:00+00:00,219.0,13.64,221.0,16.42,12.09,47.59359,-54.27349
2023-01-24 13:24:00+00:00,217.0,12.23,227.0,15.42,12.09,47.59359,-54.27349
2023-01-24 13:34:00+00:00,207.0,10.23,207.0,11.18,12.09,47.59359,-54.27349
2023-01-24 13:44:00+00:00,210.0,9.73,210.0,11.23,12.09,47.59359,-54.27349
2023-01-24 13:54:00+00:00,207.0,9.72,211.0,10.74,12.09,47.59359,-54.27349
2023-01-24 14:04:00+00:00,210.0,9.83,211.0,11.19,12.09,47.59359,-54.27349
2023-01-24 14:14:01+00:00,215.0,11.93,213.0,13.24,12.41,47.59359,-54.27349
2023-01-24 14:24:01+00:00,216.0,11.63,215.0,13.28,12.41,47.59359,-54.27349
2023-01-24 14:34:01+00:00,214.0,13.95,222.0,17.15,12.41,47.59359,-54.27349
2023-01-24 14:44:01+00:00,212.0,11.29,214.0,14.25,12.41,47.59359,-54.27349
2023-01-24 14:54:01+00:00,204.0,14.07,217.0,16.34,12.41,47.59359,-54.27349
2023-01-24 15:04:01+00:00,205.0,14.86,200.0,17.27,12.41,47.59359,-54.27349
2023-01-24 15:14:00+00:00,207.0,13.94,209.0,17.23,12.41,47.59359,-54.27349
2023-01-24 15:24:00+00:00,204.0,15.73,210.0,19.16,12.41,47.59359,-54.27349
2023-01-24 15:34:00+00:00,209.0,15.47,207.0,19.28,12.41,47.59359,-54.27349
2023-01-24 15:44:00+00:00,210.0,16.43,212.0,19.22,12.41,47.59359,-54.27349
2023-01-24 15:54:00+00:00,212.0,17.66,216.0,20.67,12.41,47.59359,-54.27349
2023-01-24 16:04:00+00:00,213.0,15.98,213.0,19.18,12.41,47.59359,-54.27349
2023-01-24 16:14:01+00:00,214.0,18.35,221.0,21.57,12.49,47.59359,-54.27349
2023-01-24 16:24:01+00:00,209.0,16.95,207.0,19.22,12.49,47.59359,-54.27349
2023-01-24 16:34:01+00:00,212.0,16.7,214.0,19.07,12.49,47.59359,-54.27349
2023-01-24 16:44:01+00:00,209.0,16.38,210.0,18.7,12.49,47.59359,-54.27349
2023-01-24 16:54:01+00:00,208.0,16.5,203.0,19.93,12.49,47.59359,-54.27349
2023-01-24 17:04:01+00:00,214.0,15.85,219.0,17.83,12.49,47.59359,-54.27349
2023-01-24 17:14:01+00:00,215.0,14.36,212.0,17.65,13.53,47.59359,-54.27349
2023-01-24 17:24:01+00:00,217.0,13.89,215.0,15.63,13.53,47.59359,-54.27349
2023-01-24 17:34:01+00:00,218.0,13.33,211.0,14.81,13.53,47.59359,-54.27349
2023-01-24 17:44:01+00:00,215.0,13.85,213.0,15.38,13.53,47.59359,-54.27349
2023-01-24 17:54:01+00:00,214.0,14.45,209.0,17.44,13.53,47.59359,-54.27349
2023-01-24 18:04:01+00:00,211.0,15.84,210.0,17.3,13.53,47.59359,-54.27349
2023-01-24 18:14:01+00:00,213.0,14.6,209.0,16.37,12.73,47.59359,-54.27349
2023-01-24 18:24:01+00:00,216.0,13.53,218.0,15.3,12.73,47.59359,-54.27349
2023-01-24 18:34:01+00:00,216.0,13.87,217.0,15.61,12.73,47.59359,-54.27349
2023-01-24 18:44:01+00:00,217.0,13.88,217.0,15.82,12.73,47.59359,-54.27349
2023-01-24 18:54:01+00:00,219.0,13.31,216.0,15.31,12.73,47.59359,-54.27349
2023-01-24 19:04:01+00:00,217.0,12.56,219.0,14.8,12.73,47.59359,-54.27349
2023-01-24 19:14:00+00:00,222.0,12.95,223.0,14.02,12.57,47.59359,-54.27349
2023-01-24 19:24:00+00:00,218.0,13.32,217.0,15.21,12.57,47.59359,-54.27349
2023-01-24 19:34:00+00:00,221.0,12.09,224.0,13.25,12.57,47.59359,-54.27349
2023-01-24 19:44:00+00:00,230.0,10.33,229.0,11.83,12.57,47.59359,-54.27349
2023-01-24 19:54:00+00:00,226.0,11.09,231.0,12.59,12.57,47.59359,-54.27349
2023-01-24 20:04:00+00:00,226.0,12.24,227.0,13.21,12.57,47.59359,-54.27349
2023-01-24 20:14:00+00:00,228.0,11.53,228.0,12.85,12.41,47.59359,-54.27349
2023-01-24 20:24:00+00:00,229.0,9.32,229.0,10.63,12.41,47.59359,-54.27349
2023-01-24 20:34:00+00:00,230.0,9.09,226.0,10.4,12.41,47.59359,-54.27349
2023-01-24 20:44:00+00:00,232.0,10.35,239.0,11.28,12.41,47.59359,-54.27349
2023-01-24 20:54:00+00:00,238.0,9.55,236.0,10.8,12.41,47.59359,-54.27349
2023-01-24 21:04:00+00:00,263.0,9.61,259.0,11.24,12.41,47.59359,-54.27349
2023-01-24 21:14:01+00:00,271.0,12.88,275.0,15.0,12.33,47.59359,-54.27349
2023-01-24 21:24:01+00:00,260.0,8.52,253.0,9.79,12.33,47.59359,-54.27349
2023-01-24 21:34:01+00:00,272.0,12.08,280.0,15.69,12.33,47.59359,-54.27349
2023-01-24 21:44:01+00:00,267.0,10.29,258.0,11.67,12.33,47.59359,-54.27349
2023-01-24 21:54:01+00:00,264.0,14.71,262.0,18.15,12.33,47.59359,-54.27349
2023-01-24 22:04:01+00:00,262.0,12.07,267.0,17.99,12.33,47.59359,-54.27349
2023-01-24 22:14:01+00:00,257.0,9.03,261.0,10.27,12.25,47.59359,-54.27349
2023-01-24 22:24:01+00:00,264.0,8.98,257.0,10.52,12.25,47.59359,-54.27349
2023-01-24 22:34:01+00:00,271.0,9.41,272.0,10.22,12.25,47.59359,-54.27349
2023-01-24 22:44:01+00:00,272.0,11.47,267.0,13.12,12.25,47.59359,-54.27349
2023-01-24 22:54:01+00:00,272.0,9.34,272.0,10.15,12.25,47.59359,-54.27349
2023-01-24 23:04:01+00:00,255.0,7.88,256.0,9.15,12.25,47.59359,-54.27349
2023-01-24 23:14:00+00:00,237.0,10.42,234.0,11.97,12.17,47.59359,-54.27349
2023-01-24 23:24:00+00:00,233.0,10.29,230.0,11.82,12.17,47.59359,-54.27349
2023-01-24 23:34:00+00:00,248.0,10.31,248.0,11.27,12.17,47.59359,-54.27349
2023-01-24 23:44:00+00:00,238.0,10.34,238.0,11.85,12.17,47.59359,-54.27349
2023-01-24 23:54:00+00:00,256.0,10.34,256.0,11.94,12.17,47.59359,-54.27349
